Colorado Springs, CO

2:10 AM MST on December 06, 2016 (GMT -0700)
City Of Colorado Springs Municipal

Weather History for KCOS - May, 2012

Change the Weather History Date:

Friday, May 18, 2012

  Actual Average Record
Temperature  
Mean Temperature 67 °F 56 °F  
Max Temperature 85 °F 70 °F 91 °F (1996)
Min Temperature 48 °F 43 °F 30 °F (1930)
Degree Days  
Heating Degree Days 0 9  
Month to date heating degree days 123 201  
Since 1 July heating degree days 5236 6123  
Cooling Degree Days 2 0  
Month to date cooling degree days 12 0  
Year to date cooling degree days 14 1  
Growing Degree Days 15 (Base 50)    
Moisture  
Dew Point 24 °F    
Average Humidity 28    
Maximum Humidity 50    
Minimum Humidity 6    
Precipitation  
Precipitation 0.00 in 0.06 in 2.23 in (1955)
Month to date precipitation 0.45 1.05  
Year to date precipitation 1.67 4.13  
Snow  
Snow 0.00 in 0.00 in T in (2007)
Month to date snowfall 0.0 0.7  
Since 1 July snowfall 21.7 37.7  
Snow Depth 0.00 in    
Sea Level Pressure  
Sea Level Pressure 29.53 in    
Wind  
Wind Speed 13 mph (SSW)    
Max Wind Speed 37 mph    
Max Gust Speed 45 mph    
Visibility 10 miles    
Events      
T = Trace of Precipitation, MM = Missing Value Source: NWS Daily Summary

Daily Weather History Graph

Daily Weather History Graph

Search for Another Location

Airport or City:

Trip Planner

Search our weather history database for the weather conditions in past years. The results will help you decide how hot, cold, wet, or windy it might be!

Date:

Astronomy

May. 18, 2012 Rise Set
Actual Time 5:43 AM MDT 8:07 PM MDT
Civil Twilight 5:13 AM MDT 8:37 PM MDT
Nautical Twilight 4:35 AM MDT 9:15 PM MDT
Astronomical Twilight 3:54 AM MDT 9:56 PM MDT
Moon 4:12 AM MDT (5/18) 6:19 PM MDT (5/18)
Length of Visible Light 15h 24m
Length of Day
14h 23m
Waning Crescent, 4% of the Moon is Illuminated
May 18
Waning Crescent
May 20
New
May 28
First Quarter
Jun 4
Full
Jun 11
Last Quarter

Hourly Weather History & Observations

Time (MDT) Temp. Dew Point Humidity Pressure Visibility Wind Dir Wind Speed Gust Speed Precip Events Conditions
12:54 AM 53.1 °F 30.0 °F 41% 29.69 in 10.0 mi North 4.6 mph - N/A   Partly Cloudy
1:54 AM 51.1 °F 30.0 °F 44% 29.66 in 9.0 mi NE 5.8 mph - N/A   Clear
2:54 AM 48.9 °F 30.0 °F 48% 29.64 in 10.0 mi NNE 6.9 mph - N/A   Clear
3:54 AM 50.0 °F 30.0 °F 46% 29.62 in 10.0 mi North 6.9 mph - N/A   Clear
4:54 AM 48.9 °F 30.0 °F 48% 29.61 in 10.0 mi North 8.1 mph - N/A   Clear
5:54 AM 50.0 °F 30.9 °F 48% 29.60 in 10.0 mi North 6.9 mph - N/A   Clear
6:54 AM 57.9 °F 34.0 °F 41% 29.57 in 10.0 mi ENE 3.5 mph - N/A   Clear
7:54 AM 68.0 °F 30.9 °F 25% 29.55 in 10.0 mi South 4.6 mph - N/A   Clear
8:54 AM 69.1 °F 33.1 °F 26% 29.56 in 10.0 mi SSE 6.9 mph - N/A   Clear
9:54 AM 73.0 °F 32.0 °F 22% 29.55 in 10.0 mi SSE 12.7 mph - N/A   Clear
10:54 AM 77.0 °F 26.1 °F 15% 29.51 in 10.0 mi South 10.4 mph - N/A   Partly Cloudy
11:54 AM 78.1 °F 19.0 °F 11% 29.52 in 10.0 mi South 12.7 mph - N/A   Scattered Clouds
12:54 PM 82.0 °F 16.0 °F 8% 29.49 in 10.0 mi SSW 21.9 mph 28.8 mph N/A   Scattered Clouds
1:54 PM 82.0 °F 18.0 °F 9% 29.48 in 10.0 mi South 16.1 mph 25.3 mph N/A   Scattered Clouds
2:54 PM 80.1 °F 16.0 °F 9% 29.47 in 10.0 mi SW 18.4 mph 32.2 mph N/A   Scattered Clouds
3:54 PM 82.0 °F 17.1 °F 9% 29.44 in 10.0 mi SW 19.6 mph 33.4 mph N/A   Scattered Clouds
4:54 PM 82.9 °F 10.0 °F 6% 29.42 in 10.0 mi SSW 28.8 mph 41.4 mph N/A   Partly Cloudy
5:54 PM 81.0 °F 12.0 °F 7% 29.42 in 10.0 mi SW 24.2 mph 39.1 mph N/A   Partly Cloudy
6:54 PM 75.9 °F 18.0 °F 11% 29.45 in 10.0 mi SW 24.2 mph 33.4 mph N/A   Partly Cloudy
7:54 PM 72.0 °F 18.0 °F 13% 29.45 in 10.0 mi SW 13.8 mph 27.6 mph N/A   Partly Cloudy
8:54 PM 69.1 °F 19.9 °F 15% 29.48 in 10.0 mi WSW 12.7 mph - N/A   Partly Cloudy
9:54 PM 66.0 °F 21.9 °F 19% 29.50 in 10.0 mi SSW 9.2 mph - N/A   Clear
10:54 PM 66.9 °F 21.0 °F 17% 29.51 in 10.0 mi South 8.1 mph 20.7 mph N/A   Clear
11:54 PM 61.0 °F 26.1 °F 26% 29.55 in 10.0 mi NE 20.7 mph 29.9 mph N/A   Clear